Location: Invercargill
(46.4000°S, 168.3500°E)
Time: 15:08:10
(UTC+13:00)

Cosmos 1844 Rocket - Pass Details

Date: 24 January 2019
Orbit: 824 x 845 km, 71.0° (Epoch: 18 February)

Event Time Altitude Azimuth Distance (km) Brightness Sun altitude
Rises 22:50:39 0° 203° (SSW) 3,409 7.3 -11.9°
Reaches altitude 10° 22:53:15 10° 196° (SSW) 2,472 6.2 -12.2°
Maximum altitude 22:58:37 42° 125° (SE) 1,195 3.4 -12.8°
Enters shadow 23:02:36 17° 61° (ENE) 2,004 4.1 -13.3°
